Lid_Strength_Index
12 11 11 11 12 11 13 13 15 14 14 12 11 11 9 8 7 7 6 6 5 5 4 4 3 3 2 3 2 1 2 2 3 3 3 3 2 2 2 1 1 1 2 2
14 11 11 12 11 11 11 12 12 12 13 10 9 9 8 9 8 7 7 6 5 5 4 4 3 3 3 3 2 2 2 2 1 2 2 3 2 2 2 2 2 2 2 3
16 13 13 14 12 12 11 11 11 14 11 10 10 9 9 8 8 7 6 6 5 5 4 4 3 3 3 2 2 2 2 2 2 2 2 2 2 2 2 3 2 2 3 4
15 15 19 12 9 9 11 10 10 10 10 9 9 8 8 8 7 6 6 5 5 4 4 3 3 2 2 2 2 2 2 2 2 2 2 2 2 2 2 2 2 3 4 4
16 17 14 11 10 11 12 12 9 10 10 9 8 7 8 6 5 5 5 4 4 3 3 3 3 2 2 2 2 2 2 2 2 2 2 2 2 2 2 2 3 3 3 4
15 17 18 12 9 7 8 15 8 8 9 9 8 12 10 6 5 5 4 4 4 3 3 3 3 2 3 3 3 3 2 2 1 2 2 2 2 2 3 3 5 5 6 6
15 16 13 9 8 7 15 14 8 8 8 8 10 8 6 5 5 4 4 4 3 3 3 3 3 3 3 3 3 2 2 2 2 2 3 3 3 3 4 4 5 6 7 7
15 17 17 7 8 12 9 8 8 7 7 7 7 6 6 5 5 4 4 4 3 3 4 3 3 3 4 4 3 3 3 3 3 3 3 3 4 4 4 5 6 6 7 8
12 13 8 8 8 7 6 7 7 7 6 6 6 6 5 5 5 4 4 4 3 3 4 3 3 3 4 4 3 3 3 3 3 4 3 3 3 4 5 5 5 5 6 7
11 10 8 7 6 6 6 6 6 5 5 5 6 5 5 5 5 4 4 4 3 3 4 4 3 3 3 3 3 3 4 5 6 7 9 9 10 9 7 5 5 5 5 7
11 9 8 7 6 6 5 5 5 5 5 5 5 5 5 5 5 4 4 3 3 3 3 3 3 2 2 3 3 4 4 6 9 10 11 11 12 11 11 12 11 8 6 5
11 8 8 7 6 5 6 5 5 5 5 4 4 5 4 5 4 4 4 4 3 3 3 3 2 3 3 3 3 4 5 7 9 10 12 11 11 11 10 11 12 12 10 8
8 7 7 6 5 4 5 5 5 4 4 5 4 4 4 5 5 4 4 5 4 3 3 2 2 2 4 4 4 4 5 6 8 9 11 11 10 10 10 9 10 11 12 11
6 6 7 6 6 4 4 4 5 4 4 4 4 4 4 4 5 5 4 4 4 4 2 2 2 2 3 3 4 4 4 5 5 6 8 8 8 9 9 9 9 7 9 9
6 7 6 6 6 6 5 4 5 5 4 4 4 4 4 4 5 5 4 4 4 4 4 4 2 2 2 3 3 4 4 4 3 4 4 4 5 8 8 9 9 8 7 7
7 6 7 7 6 5 5 5 5 5 5 5 4 4 4 4 4 4 4 4 4 5 4 4 4 4 6 6 5 5 5 3 4 4 4 4 4 5 7 7 8 7 7 6
7 9 8 9 7 6 5 4 4 4 4 4 4 4 4 4 5 5 4 4 4 4 4 4 4 4 5 4 3 4 5 5 4 6 5 5 5 4 6 5 7 7 7 6
6 6 6 6 6 6 5 4 4 4 4 4 4 4 4 4 4 4 4 4 4 4 4 4 4 3 2 3 4 4 4 5 5 6 6 6 6 6 4 5 5 7 7 6
6 6 5 5 5 5 5 5 4 4 4 4 4 4 4 3 4 5 5 5 5 5 4 5 2 2 3 3 3 5 5 5 5 5 5 4 4 5 6 5 5 5 6 6
5 5 5 4 4 5 5 4 4 4 3 3 3 4 4 5 5 6 5 5 5 4 4 4 3 3 3 3 2 5 5 5 5 5 5 5 5 5 5 6 4 4 4 5
4 4 5 5 5 4 4 4 3 4 3 3 4 4 4 4 5 5 6 6 5 5 4 3 3 3 4 3 3 6 6 6 5 4 3 4 4 4 4 3 3 4 4 4
6 5 5 5 5 5 4 4 3 3 3 3 3 4 4 5 5 5 4 3 4 4 4 3 4 3 4 2 4 4 4 4 5 5 4 4 4 4 4 4 5 5 4 5
5 6 6 6 4 4 4 5 3 3 3 3 4 4 4 4 3 4 5 3 3 4 3 3 4 3 3 4 4 4 4 4 5 5 5 5 4 4 4 4 4 5 4 5
5 5 6 6 5 5 6 4 3 3 3 3 3 3 3 4 3 2 3 4 4 4 3 3 4 4 4 3 3 4 4 5 5 5 5 6 3 3 3 4 4 5 5 6
4 5 5 5 5 5 5 3 3 3 3 3 3 3 2 2 2 2 2 3 5 4 4 5 5 4 4 4 5 6 6 5 6 5 4 4 5 5 4 4 5 5 5 5
5 5 4 5 5 5 5 3 4 3 3 3 3 3 2 3 3 2 3 4 3 5 5 5 5 5 5 5 6 5 5 5 5 6 6 5 5 5 5 5 4 4 4 4
5 7 5 5 5 5 4 3 4 4 3 3 3 3 3 4 4 4 5 4 5 5 5 5 6 6 6 5 5 5 5 5 6 6 5 6 6 6 5 5 5 4 3 3